Simultaneous Nadir Overpasses (SNOs) Predictions

Prediction of SNOs between NOAA-19 and METOP-C Satellite Orbit:

Table of predicted SNOs for the next 14.0 days since TLE Epoch: 2/25/2023
Index Date (NOAA-19) Time (NOAA-19) Lat,Lon (NOAA-19) SZA (NOAA-19 ) Date (METOP-C) Time (METOP-C) Lat,Lon (METOP-C) SZA (METOP-C ) Distance(km) Time Diff (sec)
1 03/07/2023 20:25:01 80.93, -91.38 87.40 03/07/2023 20:26:14 80.94, -91.29 87.44 1.92 73
2 03/07/2023 21:15:56 -80.93, 75.73 92.64 03/07/2023 21:16:57 -80.93, 75.79 92.61 1.08 61
3 03/07/2023 22:07:00 80.93,-116.74 87.38 03/07/2023 22:07:36 80.93,-116.79 87.39 0.95 36
4 03/07/2023 22:57:55 -80.93, 50.37 92.65 03/07/2023 22:58:19 -80.92, 50.29 92.66 1.75 24
5 03/07/2023 23:48:59 80.93,-142.10 87.37 03/07/2023 23:48:57 80.94,-141.93 87.39 3.22 2
6 03/08/2023 00:39:54 -80.93, 25.01 92.67 03/08/2023 00:39:40 -80.93, 25.15 92.66 2.43 14
7 03/08/2023 01:30:58 80.93,-167.45 87.35 03/08/2023 01:30:19 80.93,-167.43 87.34 0.63 39
8 03/08/2023 02:21:53 -80.93, -0.35 92.68 03/08/2023 02:21:02 -80.92, -0.35 92.71 0.90 51



Historial Predications of SNOs between NOAA-19 and METOP-C
